Regional Weather Roundup
Issued by NWS

Home | Current Version | Previous Version | Graphics & Text | Print | Product List | Glossary On
Versions: 1 2 3 4 5 6 7 8 9 10 11 12 13 14 15 16 17 18 19 20 21 22 23 24 25 26 27 28 29 30 31 32 33 34 35 36 37 38 39 40 41 42 43 44 45 46 47 48 49 50
000
ASUS43 KBIS 171710
RWRND

NORTH DAKOTA REGIONAL WEATHER ROUNDUP
NATIONAL WEATHER SERVICE BISMARCK ND
1100 AM CST FRI NOV 17 2017

NOTE: "FAIR" INDICATES FEW OR NO CLOUDS BELOW 12,000 FEET WITH NO
SIGNIFICANT WEATHER AND/OR OBSTRUCTIONS TO VISIBILITY.


NDZ001>003-009>011-017-171800-
NORTHWEST NORTH DAKOTA

CITY           SKY/WX    TMP DP  RH WIND       PRES   REMARKS
WILLISTON      SUNNY     22  11  62 SE5       29.71S WCI  16
MINOT          MOSUNNY   20  10  65 SW7       29.72R WCI  11
MINOT AFB      PTSUNNY   17   9  72 NW8       29.71R WCI   6
$$

NDZ018>021-031>035-040>046-171800-
SOUTHWEST NORTH DAKOTA

CITY           SKY/WX    TMP DP  RH WIND       PRES   REMARKS
BISMARCK       CLOUDY    34  23  64 N7        29.72S
DICKINSON      MOSUNNY   35  25  66 CALM      29.65S
GARRISON         N/A     23  15  71 NW6       29.71R WCI  16
HETTINGER ARPT CLOUDY    37  27  67 SW3       29.68S
$$

NDZ004>008-012>016-024-026-027-054-171800-
NORTHEAST NORTH DAKOTA

CITY           SKY/WX    TMP DP  RH WIND       PRES   REMARKS
GRAND FORKS    CLOUDY    27  18  69 NW15      29.70R WCI  15
GRND FRKS AFB  CLOUDY    24  16  70 NW13      29.71R WCI  13
DEVILS LAKE    MOSUNNY   17  12  80 W14       29.72R WCI   3
$$

NDZ022-023-025-028>030-036>039-047>053-171800-
SOUTHEAST NORTH DAKOTA

CITY           SKY/WX    TMP DP  RH WIND       PRES   REMARKS
FARGO          CLOUDY    37  29  72 NW12      29.67R
JAMESTOWN      CLOUDY    29  18  63 NW17      29.69R WCI  17
$$





USA.gov is the U.S. government's official web portal to all federal, state and local government web resources and services.